www.pogodaiklimat.ru

Погода и климат >> Архив погоды >> Португалия >> Флошир


ПОГОДА на Флошише

  • Прогноз погоды на Флошише
  • Монитор погоды на Флошише

АРХИВ ПОГОДЫ на Флошише

Время (UTC), дата Ветер
(напр.,м/с)
 
Видим.   Явления Облачность Т
(С)
Тd
(С)
f
(%)
Тe
(С)
Тes
(С)
Комфортность P
(гПа)
Po
(гПа)
Тmin
(С)
Tmax
(С)
R
(мм)
R24
(мм)
S
(см)
06 11.06 ЮВ 5-8
{10}
н/о н/о +19.2 +19.2 100 +21 +21 комфорт 1025.8 1022.3 +18.7
09 11.06 ЮВ 4
{8}
25 км 9/9 270 м
[Cu Sc]
+19.8 +19.8 100 +23 +23 комфорт 1026.0 1022.4
12 11.06 ЮВ 6
{9}
25 км 6/6 270 м
[Cu Sc]
+21.6 +19.8 89 +27 +29 душно 1026.6 1023.1
15 11.06 Ю 5-8
{8}
25 км 8/8 240 м
[Cu Sc]
+21.6 +19.2 86 +27 +29 душно 1026.4 1022.8
18 11.06 Ю 8 25 км 5/5 240 м
[Cu Sc]
+21.1 +19.1 88 +25 +26 комфорт 1025.5 1021.9 +22.8
21 11.06 Ю 4-8
{9}
н/о н/о +19.7 +19.7 100 +23 +23 комфорт 1025.6 1022.0
00 12.06 Ю 6
{9}
н/о н/о +19.6 +19.6 100 +22 +22 комфорт 1025.6 1022.0
03 12.06 Ю 6
{9}
н/о н/о +19.2 +18 +18 1024.7 1021.1
06 12.06 ЮВ 5-8
{8}
н/о н/о +19.2 +18 +18 1023.6 1020.0 +19.1
09 12.06 Ю 7 22 км 8/6 240 м
[Cu Sc Ac und Ci sp]
+19.5 -26.9 3 +18 +19 1023.8 1020.3
12 12.06 ЮВ 6-10
{10}
24 км 6/4 300 м
[Cu Sc Ac lent Ci sp]
+20.9 +20.9 100 +26 +29 душно 1024.2 1020.7
15 12.06 ЮВ 7
{11}
22 км 6/3 240 м
[Cu Sc Ac lent Ci sp]
+21.4 +21.4 100 +27 +30 душно 1023.3 1019.8
18 12.06 Ю 7 24 км 8/3 450 м
[Cu Sc Ac lent Ci sp]
+20.6 +19.0 91 +24 +25 комфорт 1022.7 1019.0 +22.4
21 12.06 ЮВ 6-9
{9}
н/о н/о +19.6 +19.6 100 +22 +22 комфорт 1022.5 1018.9
00 13.06 ЮВ 5-8
{9}
н/о н/о +19.5 +19.5 100 +22 +22 комфорт 1022.7 1019.1
03 13.06 ЮВ 7 н/о н/о +19.5 -26.9 3 +18 +18 1021.0 1017.4
06 13.06 ЮВ 6-10
{10}
н/о н/о +19.3 +18 +18 1019.7 1016.1 +19.2
09 13.06 Ю 6 20 км 9/4 300 м
[Cu Sc Ac lent Ci sp]
+19.4 +17.6 89 +21 +22 комфорт 1020.4 1016.7
12 13.06 Ю 7 10 км слаб. ливневой дождь 9/9 210 м
[Cu Sc Ac lent Ci sp]
+18.4 +17.3 93 +18 +19 1020.7 1017.0 0.5
15 13.06 ЮВ 6 22 км {ливн. осадки} 9/6 480 м
[Cu Sc Ac lent Ci sp]
+20.2 +17.4 84 +23 +25 комфорт 1020.4 1016.7
18 13.06 ЮВ 3 15 км слаб. ливневой дождь 9/6 300 м
[Cu Sc Ac lent Ci sp]
+19.8 +17.4 86 +23 +24 комфорт 1019.5 1015.9 +21.0 3
21 13.06 ЮВ 4-6
{7}
н/о н/о +18.6 -27.5 3 +18 +18 1019.8 1016.3
00 14.06 В 4-8
{8}
н/о н/о +19.1 -27.2 3 +19 +19 1020.3 1016.8 3
03 14.06 В 3-6
{6}
н/о н/о +18.5 -27.6 3 +18 +18 1019.0 1015.5
06 14.06 ЮВ 4-7
{7}
н/о н/о +18.9 +18.9 100 +20 +20 1018.8 1015.2 +17.8 3
09 14.06 ЮВ 5 28 км 6/4 480 м
[Cu Sc Ac lent Ci sp]
+19.6 +17.2 86 +22 +23 комфорт 1019.6 1015.9
12 14.06 ЮВ 4 28 км 6/5 500 м
[Cu Sc Ac lent Ci fib]
+21.0 +17.5 80 +25 +30 комфорт 1019.5 1015.8
15 14.06 ЮВ 4 28 км 6/6 500 м
[Cu Sc Ac lent Ci fib]
+20.4 +17.5 83 +24 +29 комфорт 1018.8 1015.1
18 14.06 ЮВ 6 30 км 6/5 500 м
[Cu Sc Ac lent Ci fib]
+20.2 +17.4 84 +23 +25 комфорт 1018.1 1014.5 +21.2
21 14.06 ЮВ 5
{8}
н/о н/о +19.6 +19.6 100 +22 +22 комфорт 1017.3 1013.8
00 15.06 ЮВ 4-7
{8}
н/о н/о +19.0 -27.2 3 +18 +18 1017.1 1013.6
03 15.06 ЮВ 5-8
{10}
н/о н/о +19.1 +19.1 100 +21 +21 комфорт 1015.5 1012.0
06 15.06 ЮВ 5-8
{13}
н/о н/о +18.7 +18 +18 1013.9 1010.3 +17.7 3
09 15.06 Ю 8 20 км 6/4 300 м
[Cu Sc Ac lent Ci fib]
+20.0 +18.0 88 +22 +23 комфорт 1013.1 1009.4
12 15.06 Ю 9
{15}
20 км 9/6 480 м
[Cu Sc Ac lent Ci sp]
+20.0 +17.3 84 +22 +23 комфорт 1012.1 1008.5
15 15.06 Ю 9 18 км 9/8 300 м
[Cu Sc Ac und Ci sp]
+19.6 +17.4 87 +21 +21 комфорт 1010.1 1006.5
18 15.06 Ю 8 4000 м дождь {ливн. осадки} 10/9 150 м
[Cu Sc Ac As]
+18.8 +18.4 98 +19 +19 1007.5 1003.8 +21.9 4
21 15.06 ЮВ 4
{6}
н/о н/о +18.6 +18 +18 1006.3 1002.8
00 16.06 Ю 4-7
{8}
н/о н/о +18.5 +18.5 100 +19 +19 1005.2 1001.7 14
03 16.06 ЮВ 6-12
{12}
н/о н/о +18.5 +18.5 100 +19 +19 1002.7 999.2
06 16.06 Ю 3
{5}
н/о н/о +16.1 -29.2 3 +16 +16 1001.7 998.2 +16.0 23
09 16.06 ЮВ 3 30 км 4/3 540 м
[Cu Sc Ac lent Ci fib]
+17.6 +13.0 74 +18 +20 1002.5 998.9
12 16.06 С 2 35 км 4/1 600 м
[Cu Sc Ac lent Ci sp]
+20.0 +14.0 68 +23 +35 комфорт 1003.6 999.9
15 16.06 Ю 3 30 км 8/1 660 м
[Cu Sc Ac lent Ci sp]
+20.4 +14.8 70 +23 +32 комфорт 1003.9 1000.3
18 16.06 С 8 30 км 9/3 570 м
[Cu Sc Ac lent Cs]
+20.2 +13.7 66 +22 +22 комфорт 1004.3 1000.6 +21.0
21 16.06 СЗ 5-9
{10}
н/о н/о +18.6 +14.8 79 +19 +19 1005.9 1002.4
00 17.06 С 6
{11}
н/о н/о +19.0 +18.3 96 +20 +20 1007.7 1004.2
03 17.06 С 5-7
{11}
н/о н/о +18.9 +18.3 96 +20 +20 1008.6 1005.1
06 17.06 С 4-7
{7}
н/о н/о +18.6 +18.6 100 +20 +20 1009.6 1006.1 +18.4
09 17.06 С 6 18 км слаб. ливневой дождь 9/9 300 м
[Cu Sc Ac lent Ci fib]
+18.2 +16.7 91 +18 +18 1012.1 1008.4
12 17.06 С 5 20 км {ливн. осадки} 5/5 500 м
[Cu Sc Ci fib]
+21.0 +16.7 76 +25 +29 комфорт 1013.9 1010.3 0.0
15 17.06 С 5 24 км 3/3 540 м
[Cu Sc]
+20.6 +16.7 78 +24 +31 комфорт 1014.7 1011.0
18 17.06 С 3 24 км 4/4 540 м
[Cu Sc Ci fib]
+20.6 +16.3 76 +24 +28 комфорт 1015.5 1011.8 +22.6 0.0
21 17.06 СВ 1 н/о н/о +18.9 +14.4 75 +21 +21 комфорт 1016.2 1012.7 0.2
00 18.06 ЮЗ 1 н/о н/о +17.4 +17.4 100 +18 +18 1016.8 1013.2
03 18.06 ЮВ 1 н/о н/о +18.0 +15.8 87 +19 +19 1016.0 1012.5

 

Местоположение метеостанции Флошир (Португалия): широта 39.45 долгота -31.13 высота над уровнем моря 29 м.

В архиве по умолчанию представлена погода на Флошише за последнюю неделю. Архивные данные за месяц целиком и за предыдущие месяцы, начиная с января 2011 года, Вы можете получить, выбрав интересующий диапазон дат из раскрывающегося списка и нажав кнопку "Ввод!".


*Определитесь, кто Вы:
робот инопланетянин человек

Внимание! Время в таблицах - всемирное. Для получения местного времени необходимо прибавить поправку, которая равна 0 ч.

Смотрите также архив погоды в соседних городах и на ближайших метеорологических станциях:

Погода в Каштелу-Бранку (Португалия) (233 км)
Погода в Орте (Португалия) (240 км)
Погода в Пико (Португалия) (253 км)
Погода на Острове Грасьоса (Португалия) (270 км)
Погода в Сан-Жоржи (Португалия) (270 км)
Погода в Ангра-ду-Эроижму (Португалия) (349 км)
Погода в Аэропорту Лажеша (Португалия) (356 км)
Погода в Понта-Делгаде (Португалия) (509 км)
Погода в Санта-Марии (Португалия) (590 км)
Погода в Фуншале (Португалия) (1485 км)

Пояснения к столбцам:

Ветер - указаны скорость ветра в м/с - средняя за 10 мин, порывы в срок и между сроками (в фигурных скобках) и направление, откуда дует ветер: С - северный, СВ - северо-восточный, В - восточный, ЮВ - юго-восточный, Ю - южный, ЮЗ - юго-западный, З - западный, СЗ - северо-западный.
Видимость - горизонтальная дальность видимости в метрах или километрах. При видимости от 1 до 10 км при отсутствии осадков обычно наблюдается дымка, при ухудшении видимости до 1 км и менее - туман. В сухую погоду видимость может ухудшаться дымом, пылью или мглою.
Явления - указаны атмосферные явления, наблюдавшиеся в срок или в последний час перед сроком; фигурными скобками обозначены явления, наблюдавшиеся между сроками (за 1-3 часа до срока); квадратными скобками обозначены град или гололедные отложения с указанием их диаметра в мм.
Облачность - указаны через наклонную черту общая и нижняя облачность в баллах и высота нижней границы облаков в метрах; квадратными скобками обозначены формы облаков: Ci - перистые, Cs - перисто-слоистые, Cc - перисто-кучевые, Ac - высококучевые, As - высокослоистые, Sc - слоисто-кучевые, Ns - слоисто-дождевые, Cu - кучевые, Cb - кучево-дождевые. Подробнее классификацию облаков см. в Атласе облаков (PDF).
T - Температура воздуха - температура, измеренная на высоте 2 м над землей.
Td - Температура точки росы - температура, при понижении до которой содержащийся в воздухе водяной пар достигнет насыщения.
f - Относительная влажность воздуха - влажноcть воздуха, измеренная на высоте 2 м над землей.
Te - Эффективная температура - температура, которую ощущает одетый по сезону человек в тени. Характеристика душности погоды. При расчете учитывается влияние влажности воздуха и скорости ветра на теплоощущения человека.
Tes - Эффективная температура на солнце - температура, которую ощущает человек, с поправкой на солнечный нагрев. Характеристика знойности погоды. Зависит от высоты солнца над горизонтом, облачности и скорости ветра. Ночью, в пасмурную погоду, а также при ветре 12 м/с и более поправка равна нулю.
P - Атмосферное давление - приведенное к уровню моря атмосферное давление.
Po - Атмосферное давление - измеренное на уровне метеостанции атмосферное давление.
Tmin - Минимальная температура - минимум температуры воздуха на высоте 2 м над землей.
Tmax - Максимальная температура - максимум температуры воздуха на высоте 2 м над землей.
R - Количество осадков - Количество выпавших осадков за период времени, мм. При наведении курсора мыши на число - период времени, за который выпало указанное количество осадков.
R24 - Количество осадков - Количество выпавших осадков за 24 часа, мм.
S - Снежный покров - Высота снежного покрова, см. При наведении курсора мыши на число - состояние снежного покрова и степень покрытия местности в баллах.